Temp
-13 -13 -11 -12 -13 -13 -12 -11 -11 -11 -10 -9 -9 -9 -9 -9 -8 -8 -8 -8 -8 -8 -9 -8 -8 -8 -8 -8 -8 -8 -9 -9 -9 -9 -9 -9 -9 -9 -9 -9 -9 -9 -10 -10
-13 -11 -12 -14 -14 -13 -12 -12 -11 -11 -11 -10 -9 -9 -9 -9 -8 -9 -8 -8 -8 -9 -8 -8 -8 -8 -9 -9 -8 -9 -9 -9 -9 -9 -9 -9 -9 -9 -9 -9 -9 -9 -9 -10
-13 -13 -14 -14 -14 -14 -13 -12 -12 -13 -12 -11 -10 -8 -9 -9 -8 -8 -8 -9 -8 -9 -9 -8 -9 -9 -9 -9 -9 -9 -9 -9 -9 -9 -9 -9 -9 -9 -9 -9 -10 -10 -10 -10
-14 -14 -14 -14 -13 -14 -13 -13 -13 -13 -13 -11 -11 -9 -9 -9 -9 -8 -8 -8 -8 -8 -8 -8 -8 -9 -9 -9 -9 -9 -9 -9 -9 -10 -10 -10 -10 -10 -9 -9 -10 -10 -10 -10
-13 -14 -14 -14 -13 -14 -13 -14 -15 -14 -13 -12 -11 -10 -8 -9 -9 -9 -9 -9 -9 -8 -8 -8 -8 -9 -9 -9 -9 -9 -9 -9 -9 -10 -10 -10 -10 -10 -10 -10 -10 -10 -10 -10
-15 -15 -15 -14 -15 -15 -15 -15 -15 -15 -14 -13 -11 -12 -7 -9 -10 -10 -10 -9 -9 -9 -9 -9 -9 -9 -9 -9 -9 -9 -9 -9 -9 -10 -10 -10 -10 -10 -10 -10 -10 -10 -11 -11
-15 -14 -14 -14 -14 -15 -14 -14 -15 -15 -14 -11 -11 -12 -8 -9 -10 -11 -11 -10 -10 -10 -9 -9 -9 -9 -9 -9 -9 -10 -9 -10 -10 -10 -10 -10 -10 -10 -11 -11 -11 -11 -11 -11
-15 -15 -14 -14 -14 -14 -14 -14 -14 -14 -13 -12 -13 -11 -10 -11 -11 -11 -11 -11 -11 -10 -10 -10 -10 -9 -9 -9 -9 -9 -9 -10 -10 -10 -10 -10 -10 -11 -11 -11 -11 -11 -11 -11
-16 -15 -15 -15 -15 -15 -15 -15 -15 -16 -15 -14 -13 -11 -11 -11 -12 -11 -11 -11 -11 -11 -11 -10 -10 -10 -10 -10 -10 -10 -10 -10 -10 -10 -10 -11 -11 -11 -11 -11 -11 -11 -11 -12
-17 -17 -16 -17 -17 -17 -16 -16 -16 -16 -15 -14 -13 -12 -11 -11 -11 -12 -12 -12 -11 -11 -11 -11 -10 -10 -10 -10 -10 -10 -10 -10 -10 -10 -10 -11 -11 -11 -11 -11 -11 -11 -12 -12
-18 -18 -18 -18 -17 -16 -16 -16 -16 -16 -16 -15 -14 -12 -12 -12 -13 -13 -13 -12 -12 -12 -11 -11 -11 -11 -11 -11 -10 -10 -10 -10 -10 -11 -11 -11 -11 -11 -11 -11 -12 -12 -12 -13
-18 -19 -18 -18 -18 -18 -18 -17 -17 -17 -15 -14 -14 -12 -12 -12 -13 -13 -14 -13 -12 -12 -11 -11 -11 -11 -11 -12 -12 -11 -11 -11 -11 -11 -11 -11 -11 -12 -12 -12 -12 -12 -13 -13
-20 -20 -19 -19 -20 -20 -18 -17 -17 -16 -16 -15 -15 -12 -13 -13 -13 -13 -14 -13 -13 -13 -13 -13 -12 -12 -12 -12 -12 -12 -12 -12 -11 -12 -12 -12 -12 -12 -12 -12 -12 -13 -13 -13
-22 -21 -20 -18 -17 -18 -17 -17 -16 -17 -17 -14 -13 -13 -13 -14 -14 -14 -14 -14 -13 -13 -13 -13 -13 -12 -12 -12 -13 -12 -12 -12 -12 -12 -12 -12 -12 -13 -13 -13 -13 -13 -13 -14
-25 -24 -22 -20 -20 -20 -19 -19 -18 -18 -15 -16 -13 -14 -14 -14 -15 -14 -15 -14 -14 -14 -13 -13 -13 -13 -13 -13 -12 -13 -13 -13 -12 -13 -13 -13 -13 -13 -13 -13 -13 -14 -14 -14
-25 -24 -24 -23 -22 -21 -20 -19 -20 -18 -17 -17 -15 -15 -15 -15 -14 -15 -15 -15 -14 -14 -13 -13 -13 -13 -13 -13 -13 -13 -13 -13 -13 -13 -13 -13 -13 -13 -13 -13 -13 -13 -14 -14
-25 -25 -24 -24 -23 -23 -22 -19 -18 -18 -17 -16 -16 -15 -15 -15 -15 -15 -15 -15 -15 -14 -14 -14 -14 -13 -13 -13 -12 -13 -13 -13 -13 -13 -13 -13 -13 -13 -13 -13 -14 -14 -14 -14
-26 -26 -25 -24 -24 -24 -22 -21 -20 -19 -18 -17 -16 -16 -16 -16 -17 -17 -16 -15 -15 -15 -15 -15 -14 -14 -14 -13 -13 -13 -13 -13 -14 -14 -14 -14 -14 -14 -14 -14 -14 -14 -14 -14
-27 -27 -27 -25 -25 -24 -23 -22 -21 -19 -18 -17 -17 -17 -16 -16 -17 -17 -16 -16 -15 -15 -15 -15 -15 -14 -14 -13 -13 -13 -13 -13 -13 -14 -14 -14 -14 -14 -14 -15 -15 -15 -15 -15
-27 -27 -28 -27 -26 -25 -24 -23 -23 -22 -18 -19 -18 -17 -17 -17 -17 -16 -17 -17 -16 -15 -15 -15 -15 -14 -14 -14 -13 -13 -13 -13 -13 -13 -13 -13 -14 -14 -15 -15 -15 -15 -15 -15
-29 -28 -28 -28 -27 -26 -24 -24 -24 -23 -20 -19 -19 -18 -18 -17 -17 -16 -18 -17 -16 -15 -15 -15 -15 -15 -14 -14 -13 -13 -13 -13 -13 -13 -13 -13 -13 -13 -14 -14 -15 -15 -15 -15
-29 -29 -29 -28 -28 -28 -25 -24 -24 -24 -23 -21 -20 -19 -19 -18 -17 -17 -16 -17 -17 -16 -16 -15 -15 -16 -15 -14 -14 -13 -13 -14 -13 -13 -13 -13 -13 -13 -14 -15 -15 -15 -15 -16
-30 -29 -28 -28 -28 -26 -26 -26 -24 -25 -24 -23 -22 -21 -21 -20 -18 -17 -16 -16 -17 -17 -16 -16 -15 -15 -15 -15 -14 -14 -14 -14 -14 -14 -13 -13 -13 -13 -13 -14 -14 -15 -16 -16
-32 -31 -31 -30 -30 -28 -27 -26 -26 -25 -24 -24 -24 -22 -22 -22 -20 -19 -18 -17 -16 -17 -17 -17 -16 -15 -16 -16 -15 -15 -14 -14 -14 -14 -14 -14 -14 -13 -13 -14 -14 -15 -16 -17
-32 -31 -31 -31 -30 -30 -28 -28 -26 -26 -25 -24 -24 -23 -23 -23 -22 -21 -19 -19 -18 -18 -18 -17 -17 -16 -16 -17 -15 -15 -15 -15 -14 -14 -14 -14 -14 -14 -14 -14 -15 -15 -16 -16
-32 -32 -31 -30 -29 -28 -28 -28 -27 -25 -25 -25 -24 -24 -25 -25 -23 -22 -21 -20 -19 -19 -18 -18 -18 -17 -17 -17 -17 -16 -15 -15 -15 -15 -15 -15 -14 -15 -14 -15 -15 -15 -16 -16
Height
5688 5692 5701 5707 5710 5712 5715 5721 5725 5731 5734 5738 5741 5748 5755 5758 5763 5769 5773 5777 5782 5787 5787 5791 5795 5798 5801 5803 5805 5807 5808 5810 5811 5813 5812 5813 5812 5811 5810 5808 5806 5804 5801 5797
5678 5684 5691 5692 5695 5700 5705 5711 5717 5721 5724 5728 5731 5738 5746 5750 5755 5762 5765 5769 5775 5780 5782 5786 5788 5791 5794 5796 5798 5800 5803 5804 5805 5807 5808 5808 5808 5807 5807 5804 5803 5801 5798 5794
5668 5676 5679 5682 5687 5691 5697 5703 5708 5711 5712 5716 5722 5727 5736 5742 5747 5754 5760 5764 5767 5772 5776 5779 5783 5786 5787 5790 5792 5793 5796 5798 5799 5802 5802 5802 5803 5803 5803 5802 5800 5798 5795 5792
5651 5659 5665 5669 5676 5682 5686 5694 5695 5698 5700 5706 5711 5715 5728 5733 5737 5745 5751 5756 5760 5763 5767 5770 5775 5779 5783 5784 5784 5786 5789 5792 5793 5796 5796 5797 5797 5797 5798 5796 5795 5794 5792 5790
5641 5648 5654 5660 5671 5673 5679 5682 5684 5687 5690 5694 5702 5704 5722 5726 5731 5736 5740 5745 5750 5754 5757 5761 5767 5771 5773 5775 5778 5780 5782 5785 5788 5789 5790 5791 5791 5792 5792 5792 5791 5790 5788 5787
5624 5631 5638 5651 5656 5661 5665 5670 5673 5676 5680 5681 5696 5698 5707 5720 5726 5726 5729 5733 5739 5744 5749 5753 5757 5760 5764 5768 5771 5774 5776 5778 5781 5782 5784 5785 5785 5786 5787 5787 5787 5786 5785 5783
5603 5611 5624 5633 5640 5646 5650 5655 5659 5663 5667 5677 5683 5688 5700 5710 5717 5717 5719 5724 5729 5733 5739 5744 5748 5751 5755 5759 5763 5765 5768 5771 5773 5775 5777 5778 5779 5781 5781 5782 5782 5781 5781 5780
5592 5598 5612 5621 5626 5637 5639 5643 5650 5655 5659 5668 5669 5680 5692 5699 5705 5709 5712 5714 5719 5724 5728 5732 5737 5741 5745 5748 5752 5756 5759 5762 5765 5767 5769 5771 5773 5774 5775 5776 5776 5776 5776 5775
5576 5582 5595 5605 5615 5623 5627 5632 5643 5645 5650 5656 5662 5674 5681 5687 5693 5698 5701 5705 5708 5713 5717 5722 5727 5732 5736 5740 5743 5747 5750 5753 5756 5758 5761 5763 5765 5767 5768 5770 5770 5770 5770 5770
5556 5568 5576 5588 5592 5601 5613 5626 5629 5635 5642 5648 5657 5666 5675 5678 5686 5687 5692 5694 5697 5702 5707 5712 5717 5722 5727 5730 5734 5737 5741 5744 5746 5749 5753 5756 5757 5759 5761 5762 5763 5764 5764 5764
5538 5546 5558 5563 5570 5587 5600 5602 5612 5623 5630 5638 5648 5659 5667 5672 5677 5678 5681 5685 5689 5693 5698 5703 5707 5712 5716 5720 5724 5727 5731 5735 5738 5741 5744 5747 5749 5751 5753 5754 5756 5757 5758 5758
5529 5530 5538 5551 5563 5572 5580 5591 5602 5611 5625 5631 5639 5652 5662 5667 5671 5675 5678 5681 5684 5686 5690 5693 5697 5701 5706 5709 5714 5718 5722 5726 5729 5732 5736 5739 5742 5744 5746 5748 5750 5751 5752 5753
5507 5508 5522 5532 5538 5548 5560 5578 5591 5600 5611 5620 5633 5644 5650 5656 5662 5668 5671 5675 5676 5678 5681 5684 5687 5692 5696 5701 5705 5709 5713 5717 5721 5725 5728 5731 5735 5737 5739 5742 5744 5746 5747 5748
5493 5499 5507 5517 5534 5547 5554 5563 5573 5582 5592 5608 5617 5629 5639 5645 5651 5658 5663 5668 5671 5672 5674 5677 5680 5684 5688 5692 5697 5702 5705 5710 5714 5717 5720 5724 5727 5731 5733 5736 5739 5740 5742 5743
5481 5490 5496 5507 5514 5524 5538 5548 5559 5567 5589 5588 5614 5614 5625 5634 5640 5651 5657 5660 5664 5666 5669 5673 5676 5679 5682 5686 5690 5693 5698 5702 5706 5710 5714 5717 5720 5724 5727 5730 5732 5734 5736 5738
5468 5476 5482 5491 5500 5507 5516 5529 5538 5553 5569 5579 5592 5603 5612 5622 5630 5637 5645 5650 5654 5659 5663 5667 5670 5674 5676 5679 5683 5686 5690 5694 5698 5702 5706 5710 5713 5717 5720 5723 5725 5727 5729 5731
5458 5465 5473 5480 5487 5495 5496 5512 5527 5543 5551 5569 5571 5592 5601 5606 5613 5622 5631 5639 5643 5649 5654 5659 5663 5667 5670 5674 5677 5679 5683 5687 5691 5695 5699 5703 5707 5710 5712 5715 5718 5720 5722 5725
5445 5452 5457 5465 5473 5479 5489 5498 5513 5527 5538 5552 5563 5574 5584 5592 5597 5603 5614 5625 5631 5635 5640 5648 5654 5658 5662 5666 5670 5673 5675 5679 5684 5688 5692 5696 5699 5702 5705 5708 5711 5714 5716 5718
5435 5440 5447 5451 5457 5468 5478 5485 5500 5508 5526 5542 5547 5558 5568 5573 5576 5586 5597 5607 5615 5621 5626 5634 5642 5648 5653 5657 5661 5665 5669 5673 5677 5681 5685 5688 5691 5694 5698 5701 5704 5706 5709 5710
5422 5427 5432 5440 5444 5452 5473 5475 5482 5492 5502 5524 5534 5544 5547 5552 5555 5579 5581 5590 5600 5607 5613 5621 5628 5636 5643 5648 5651 5657 5661 5666 5669 5673 5676 5679 5683 5687 5691 5693 5696 5699 5701 5703
5407 5411 5416 5425 5427 5434 5458 5466 5469 5476 5494 5508 5516 5524 5528 5533 5546 5554 5565 5573 5583 5592 5599 5608 5616 5623 5630 5635 5641 5646 5652 5657 5661 5664 5667 5671 5675 5678 5682 5685 5689 5691 5694 5696
5399 5396 5403 5409 5414 5419 5444 5452 5459 5476 5482 5491 5501 5505 5506 5514 5526 5537 5544 5559 5566 5576 5584 5593 5602 5609 5618 5625 5629 5634 5640 5644 5650 5655 5658 5662 5666 5669 5673 5677 5680 5683 5686 5689
5377 5386 5392 5394 5397 5417 5429 5435 5448 5456 5468 5472 5482 5488 5491 5500 5511 5521 5528 5536 5550 5559 5568 5576 5586 5595 5603 5612 5619 5624 5628 5634 5639 5644 5649 5653 5656 5660 5663 5667 5671 5674 5677 5680
5365 5374 5372 5379 5385 5398 5407 5416 5428 5436 5449 5459 5463 5472 5475 5483 5494 5505 5512 5516 5528 5542 5552 5561 5570 5579 5588 5596 5605 5611 5616 5622 5627 5633 5638 5642 5645 5649 5653 5656 5661 5665 5668 5670
5351 5357 5356 5357 5366 5380 5386 5394 5407 5419 5431 5443 5453 5458 5458 5467 5477 5486 5494 5499 5508 5520 5532 5544 5554 5562 5571 5579 5589 5596 5603 5609 5615 5620 5626 5630 5634 5637 5641 5645 5650 5654 5657 5659
5341 5344 5342 5345 5361 5366 5378 5390 5398 5403 5412 5425 5430 5438 5439 5444 5454 5466 5475 5484 5493 5503 5515 5526 5535 5544 5552 5563 5573 5581 5589 5595 5601 5607 5613 5618 5622 5626 5630 5634 5638 5642 5645 5648
Wind_Speed
52 51 45 43 47 44 45 48 50 49 52 55 55 52 49 49 45 42 40 38 35 33 35 33 33 34 34 35 33 31 31 29 28 25 24 24 24 25 28 30 29 28 26 25
51 53 47 44 48 51 49 48 48 48 51 54 57 55 51 52 50 46 44 42 38 35 36 34 33 33 33 34 34 32 30 29 29 28 27 25 24 24 29 27 27 27 24 24
54 48 44 46 46 51 51 47 43 46 49 54 56 57 53 52 52 49 46 44 43 39 36 37 35 34 34 33 33 33 31 30 29 27 28 27 27 27 25 30 29 26 23 21
61 57 51 49 50 49 52 51 47 47 49 52 53 60 54 52 53 50 49 48 46 44 42 41 39 35 33 34 37 35 33 32 31 29 30 28 28 28 28 31 28 24 22 20
66 61 57 51 46 49 49 49 50 49 50 52 52 58 55 50 51 50 48 49 49 48 47 45 42 40 39 38 37 37 35 33 32 31 30 29 30 28 28 27 25 23 21 19
71 66 61 56 51 45 48 47 49 51 54 58 53 52 61 49 45 46 47 49 48 48 47 46 45 43 43 41 39 38 36 35 34 33 32 31 30 28 27 26 25 23 21 20
79 76 69 64 60 55 54 52 53 54 57 55 53 54 59 49 40 43 45 46 44 44 44 44 45 44 43 41 40 39 39 37 35 34 33 32 31 28 27 26 25 23 23 21
76 79 74 71 66 61 59 56 53 52 52 52 52 49 48 51 46 44 43 40 41 42 42 41 41 42 44 44 42 42 41 40 37 36 34 33 31 29 28 27 25 23 23 21
80 78 76 74 70 66 63 60 52 51 49 46 46 44 43 40 37 39 42 47 45 40 39 39 39 38 38 39 38 40 41 40 38 38 36 33 31 30 29 27 25 25 23 20
76 78 77 73 74 71 67 59 56 52 51 48 43 38 33 34 31 34 35 37 41 42 43 43 40 39 37 37 37 38 39 40 40 39 36 35 33 31 30 28 26 25 23 21
79 78 77 74 77 75 72 72 66 60 56 51 47 41 36 31 27 24 31 37 37 37 36 35 35 35 35 37 38 37 37 36 35 36 34 34 32 31 31 30 27 25 24 22
69 76 78 77 70 71 70 69 67 65 59 57 53 44 36 34 29 25 21 25 29 30 32 36 35 35 34 37 37 37 36 35 36 35 35 35 34 33 31 29 27 25 24 22
70 72 72 75 75 72 71 72 69 66 63 61 54 49 45 41 36 32 29 29 27 26 27 32 38 38 35 36 36 38 38 36 34 32 31 31 31 30 30 29 27 26 23 21
59 67 76 77 76 73 76 73 74 72 70 66 63 57 52 49 44 38 31 35 30 26 27 29 31 31 34 34 36 36 33 33 34 34 31 28 28 29 28 27 25 23 23 22
57 47 64 68 67 68 70 68 67 68 70 73 63 64 59 56 53 44 37 34 33 30 27 25 23 26 30 29 30 31 34 36 34 31 30 29 29 28 26 25 23 23 22 20
61 59 47 57 65 65 67 69 68 68 67 66 67 66 63 57 56 53 44 42 38 35 33 32 28 24 24 25 29 30 29 30 32 31 29 29 26 23 23 22 22 21 19 19
47 59 66 42 55 63 67 73 72 72 71 70 72 66 63 63 60 54 49 45 41 41 40 37 33 32 28 25 25 26 27 27 28 27 26 25 23 23 23 23 21 20 20 20
48 38 54 67 41 45 72 71 73 71 70 68 68 67 66 65 63 62 58 53 52 52 47 41 39 39 35 31 31 30 28 28 26 25 23 22 21 20 20 18 19 20 20 20
66 54 42 54 66 53 40 67 74 75 75 72 74 67 66 68 69 68 65 61 59 58 53 48 45 43 39 37 36 35 32 31 29 26 25 24 23 22 22 21 22 20 21 21
76 61 50 56 53 71 53 33 51 71 81 73 72 74 73 70 73 67 64 64 62 62 61 54 51 48 43 42 41 38 37 33 30 26 27 28 27 26 24 24 23 22 22 22
65 66 62 62 63 66 72 56 41 53 71 76 76 77 77 78 76 75 67 65 67 66 63 59 55 54 51 49 47 43 40 39 34 30 29 31 30 29 28 27 25 24 24 23
75 76 71 66 60 67 67 71 62 48 60 66 74 79 83 83 82 80 79 71 68 68 67 64 61 60 57 54 52 50 48 48 40 37 37 34 33 33 31 29 28 27 26 24
76 88 84 80 73 75 71 63 73 60 51 59 62 72 78 83 80 81 82 81 74 70 68 68 66 64 63 60 57 55 53 52 47 43 44 39 39 37 34 31 31 29 28 28
49 69 80 82 81 77 76 74 67 72 68 63 54 68 71 70 79 88 88 87 83 79 75 72 71 69 67 65 62 61 59 58 53 49 49 45 44 43 41 39 36 34 32 32
42 57 57 73 87 80 85 85 79 78 75 72 67 62 71 67 71 77 80 81 81 80 79 79 78 75 75 70 69 67 64 63 61 56 54 51 50 49 47 44 41 38 38 38
24 29 48 75 84 91 93 85 88 88 89 78 83 77 68 67 72 74 75 72 69 66 65 67 71 76 79 76 73 71 69 68 66 63 59 57 56 54 50 48 45 43 42 41
Wind_Direction
243 242 242 242 242 242 241 238 238 236 233 235 238 236 233 234 231 230 232 233 225 223 231 233 234 236 239 243 246 249 253 257 262 266 273 282 290 298 303 308 315 320 329 337
241 242 241 240 235 236 238 238 239 241 239 237 236 237 234 237 237 235 235 235 236 230 230 232 234 237 240 243 246 249 252 257 258 263 270 279 284 293 301 300 309 314 325 333
239 241 242 240 238 237 237 240 240 241 241 239 239 236 235 237 239 239 240 242 242 241 238 237 235 235 239 244 247 249 250 253 258 261 263 268 277 282 286 299 303 309 318 326
235 235 235 234 233 237 238 237 235 237 242 242 241 239 236 237 240 239 240 242 243 245 243 243 243 241 241 242 244 248 251 253 255 259 263 268 272 275 278 282 293 302 310 320
235 234 236 237 238 235 237 236 236 236 239 243 242 244 233 239 242 244 244 241 241 243 245 246 244 245 243 243 246 248 250 255 258 259 261 264 267 272 277 282 289 297 303 313
233 233 233 233 234 233 236 236 238 238 239 244 244 247 235 234 241 246 246 246 244 244 243 244 247 246 247 247 248 251 253 253 254 256 258 261 266 270 275 280 287 293 301 307
229 230 231 230 231 230 232 232 233 235 241 246 247 246 240 239 238 242 247 247 247 247 246 244 244 246 248 247 246 247 249 250 252 254 257 262 264 269 273 276 283 289 295 300
234 234 231 231 230 233 235 233 236 238 242 247 250 249 249 248 247 244 245 248 249 249 247 245 244 244 245 248 247 247 247 248 249 252 255 258 263 265 269 272 278 284 287 293
231 234 232 233 236 234 234 233 235 237 240 242 245 244 244 244 242 241 242 243 244 242 243 246 246 244 243 243 245 246 247 249 250 251 253 255 258 261 264 271 275 276 279 284
232 234 234 233 234 232 233 236 236 236 238 240 243 243 241 245 242 240 236 236 238 241 245 246 247 247 247 245 244 244 247 248 250 252 254 255 257 258 260 263 264 268 273 278
228 230 232 233 230 231 230 231 230 231 234 238 238 236 231 236 237 235 225 231 235 237 238 239 238 238 237 238 240 240 241 244 245 247 246 247 249 250 252 255 259 263 268 271
228 231 232 234 235 233 232 231 236 236 234 235 237 235 235 236 237 232 230 226 231 233 230 231 231 231 228 227 231 231 232 234 236 240 243 246 247 249 253 255 255 260 265 269
224 227 230 230 233 231 230 228 230 231 231 232 236 233 238 237 236 229 231 216 212 212 217 220 224 224 224 224 225 228 229 230 232 234 239 244 247 249 250 253 259 261 264 270
224 228 229 231 235 236 233 229 228 230 229 228 227 230 230 238 240 235 225 217 217 218 218 219 218 218 219 220 222 224 226 228 230 231 232 236 243 249 254 256 259 263 268 270
212 222 232 229 233 233 232 233 235 235 232 231 228 230 231 230 235 232 226 211 218 220 215 213 215 219 221 220 221 224 227 230 231 232 236 236 239 245 251 256 261 264 267 270
217 209 218 231 229 231 231 229 229 229 229 232 231 230 233 232 233 230 224 224 227 227 224 222 223 221 214 215 219 223 229 230 232 233 236 241 243 245 250 256 260 265 264 266
205 220 217 220 234 231 233 225 228 230 229 228 227 225 227 231 231 229 223 222 229 229 229 227 222 217 223 229 229 219 220 223 224 225 229 236 242 244 247 249 253 255 257 262
218 206 219 215 212 228 233 229 227 227 228 226 228 227 226 226 231 235 230 224 225 229 229 226 220 216 224 228 230 226 217 215 219 224 225 228 231 234 237 240 245 249 254 255
227 220 217 221 221 218 223 234 230 228 225 225 227 228 228 229 230 229 229 223 222 225 227 224 221 219 221 224 223 219 218 215 211 215 218 222 225 229 233 236 241 243 247 255
225 225 226 228 224 221 211 213 226 227 226 224 226 227 231 229 230 228 228 226 222 222 225 223 224 223 222 220 216 217 221 218 207 208 215 218 221 225 231 234 239 243 249 253
239 238 234 231 232 223 211 215 212 216 224 220 223 225 228 231 231 229 225 224 222 220 224 225 225 228 223 216 213 214 215 207 210 220 228 227 224 226 227 231 237 243 249 254
239 244 242 239 233 234 212 216 215 222 226 226 221 225 229 230 229 230 229 223 225 224 225 227 225 228 227 218 213 211 214 213 213 226 227 226 227 226 225 229 233 240 247 255
240 231 232 238 240 229 224 225 213 212 209 218 220 225 230 231 229 228 230 231 225 226 226 228 226 227 228 223 218 215 220 215 216 225 222 229 230 229 226 228 233 238 245 253
247 241 246 245 243 240 232 229 224 223 216 216 208 216 223 229 231 232 231 233 232 231 228 227 226 226 228 226 223 221 220 222 217 225 223 228 226 227 225 224 229 236 243 253
243 239 246 248 244 241 238 235 228 228 226 219 216 212 221 222 227 228 231 232 233 234 233 230 228 226 227 229 225 224 223 222 223 224 227 228 228 227 226 226 230 234 239 245
256 265 251 242 240 237 235 237 241 227 225 223 224 217 223 227 223 225 227 226 225 224 228 229 228 227 227 228 229 227 225 224 225 224 228 230 232 231 230 229 231 235 239 244